This is the latest recevied weather packets stored in our database for station/object KI4BSX. If no packets are shown the sender has not sent any weather packets the latest 10 day(s).
| Time | Temp. | Humidity | Pressure | Rain* | Wind** | Luminosity | Snow |
|---|---|---|---|---|---|---|---|
| 1777666758 | 18.89° C | 60% | 1015 hPa | 0 mm | - | - | - |
| 1777666455 | 18.89° C | 60% | 1015.3 hPa | 0 mm | - | - | - |
| 1777666152 | 18.89° C | 59% | 1015.6 hPa | 0 mm | - | - | - |
| 1777665849 | 19.44° C | 59% | 1015.5 hPa | 0 mm | - | - | - |
| 1777665547 | 20° C | 59% | 1015.6 hPa | 0 mm | - | - | - |
| 1777665243 | 19.44° C | 60% | 1015.7 hPa | 0 mm | - | - | - |
| 1777664939 | 20° C | 60% | 1015.5 hPa | 0 mm | - | - | - |
| 1777664635 | 19.44° C | 61% | 1015.5 hPa | 0 mm | - | - | - |
| 1777664331 | 19.44° C | 60% | 1015.6 hPa | 0 mm | - | - | - |
| 1777664030 | 19.44° C | 60% | 1015.7 hPa | 0 mm | - | - | - |
| 1777663727 | 19.44° C | 60% | 1015.9 hPa | 0 mm | - | - | - |
| 1777663424 | 19.44° C | 60% | 1016 hPa | 0 mm | - | - | - |
| 1777663121 | 18.89° C | 60% | 1016.1 hPa | 0 mm | - | - | - |
| 1777662818 | 19.44° C | 61% | 1016.1 hPa | 0 mm | - | - | - |
| 1777662514 | 18.89° C | 62% | 1016.3 hPa | 0 mm | - | - | - |
| 1777662211 | 18.33° C | 61% | 1016.4 hPa | 0 mm | - | - | - |
| 1777661906 | 18.89° C | 60% | 1016.3 hPa | 0 mm | - | - | - |
| 1777661602 | 18.89° C | 61% | 1016.3 hPa | 0 mm | - | - | - |
| 1777661298 | 18.89° C | 60% | 1016.3 hPa | 0 mm | - | - | - |
| 1777660994 | 18.89° C | 60% | 1016.5 hPa | 0 mm | - | - | - |
| 1777660690 | 18.89° C | 59% | 1016.4 hPa | 0 mm | - | - | - |
| 1777660387 | 18.89° C | 61% | 1016.6 hPa | 0 mm | - | - | - |
| 1777660083 | 18.33° C | 60% | 1016.7 hPa | 0 mm | - | - | - |
| 1777659780 | 18.89° C | 59% | 1016.6 hPa | 0 mm | - | - | - |
| 1777659477 | 18.33° C | 59% | 1016.8 hPa | 0 mm | - | - | - |
* Rain latest hour (hover to see other rain measurements)
** Current wind speed in m/s (hover to see current wind gust speed)